Location: Doussal
(55.6167°N, 116.8333°W)
Time: 12:39:12
(UTC+00:00)

AO-109 - Visible Passes

Search period start: 08 December 2023 00:00
Search period end: 18 December 2023 00:00
Orbit: 387 x 420 km, 60.7° (Epoch: 07 December)

Date Brightness Start Highest point End Pass type
(mag) Time Alt. Az. Time Alt. Az. Time Alt. Az.
08 Dec ? 12:18:40 12° ENE 12:18:40 12° ENE 12:19:00 10° ENE visible
08 Dec ? 13:51:21 48° NW 13:51:36 49° NNW 13:54:45 10° NE visible
09 Dec ? 13:01:16 26° NE 13:01:16 26° NE 13:02:51 10° ENE visible
09 Dec ? 14:33:55 19° WNW 14:35:38 33° N 14:38:35 10° ENE visible
10 Dec ? 13:43:42 37° N 13:43:42 37° N 13:46:31 10° ENE visible
10 Dec ? 15:16:41 10° WNW 15:19:38 33° N 15:22:35 10° ENE visible
11 Dec ? 12:53:21 19° NE 12:53:21 19° NE 12:54:25 10° NE visible
11 Dec ? 14:25:59 22° NW 14:27:22 31° N 14:30:17 10° ENE visible
12 Dec ? 13:35:31 31° NNE 13:35:31 31° NNE 13:37:58 10° ENE visible
12 Dec ? 15:08:09 10° WNW 15:11:09 39° NNE 15:14:12 10° E visible
13 Dec ? 12:44:57 15° NE 12:44:57 15° NE 12:45:39 10° ENE visible
13 Dec ? 14:17:34 25° NW 14:18:44 33° N 14:21:42 10° ENE visible
14 Dec ? 13:26:54 28° NNE 13:26:54 28° NNE 13:29:09 10° ENE visible
14 Dec ? 14:59:31 13° NW 15:02:17 50° NNE 15:05:25 10° E visible
15 Dec ? 12:36:08 13° NE 12:36:08 13° NE 12:36:35 10° ENE visible
15 Dec ? 14:08:45 29° NNW 14:09:43 38° NNE 14:12:46 10° E visible
16 Dec ? 13:17:54 28° NE 13:17:54 28° NE 13:20:00 10° ENE visible
16 Dec ? 14:50:30 16° NW 14:53:00 73° NNE 14:56:12 10° ESE visible
17 Dec ? 12:26:58 11° ENE 12:26:58 11° ENE 12:27:11 10° ENE visible
17 Dec ? 13:59:35 39° NNW 14:00:19 48° NNE 14:03:27 10° E visible
